Location: Unspecified
(0.0000°N, 0.0000°E)
Time: 16:10:13
(UTC+00:00)

Vanguard 1 - Visible Passes

Search period start: 12 February 2016 00:00
Search period end: 22 February 2016 00:00
Orbit: 650 x 3834 km, 34.2° (Epoch: 10 February)

Date Brightness Start Highest point End Pass type
(mag) Time Alt. Az. Time Alt. Az. Time Alt. Az.
12 Feb 12.8 04:50:38 10° NNW 04:58:55 26° NE 05:11:40 10° E visible
12 Feb 10.2 19:36:52 10° WSW 19:46:19 76° NW 19:48:38 40° NE visible
13 Feb 12.7 05:10:45 10° NNW 05:20:05 36° NE 05:35:42 10° ESE visible
13 Feb 10.7 19:58:50 10° WSW 20:07:13 46° NW 20:08:50 38° N visible
14 Feb 12.6 05:31:08 10° NNW 05:41:11 49° NE 05:58:58 10° ESE visible
14 Feb 11.4 20:21:18 10° W 20:28:02 27° NW 20:29:03 26° NNW visible
15 Feb 12.8 03:36:24 11° NNE 03:40:22 14° NE 03:45:58 10° ENE visible
15 Feb 12.1 20:44:40 10° W 20:48:52 16° NW 20:49:17 16° NW visible
16 Feb 12.5 03:56:32 14° N 04:01:34 22° NE 04:11:07 10° E visible
16 Feb 11.0 18:37:39 10° WSW 18:49:50 73° NW 18:56:19 10° NE visible
17 Feb 12.3 04:16:41 17° N 04:22:34 32° NE 04:35:03 10° E visible
17 Feb 11.4 18:59:49 10° WSW 19:10:46 48° NW 19:16:56 10° NNE visible
18 Feb 12.1 04:36:52 18° NNW 04:43:30 46° NE 04:58:12 10° ESE visible
18 Feb 12.0 19:22:32 10° WSW 19:31:35 31° NW 19:37:13 10° NNE visible
19 Feb 13.0 02:44:19 10° NE 02:44:19 10° NE 02:45:04 10° NE visible
19 Feb 11.7 04:57:03 16° NW 05:04:29 65° NE 05:20:47 10° ESE visible
19 Feb 12.2 19:46:00 10° W 19:52:26 19° NW 19:57:01 10° N visible
20 Feb 12.5 03:04:31 18° NE 03:04:40 18° NE 03:11:15 10° E visible
20 Feb 11.6 05:17:16 13° NW 05:25:38 87° NE 05:42:55 10° SE visible
20 Feb 12.5 20:11:21 10° WNW 20:13:26 11° NW 20:15:17 10° NNW visible
21 Feb 12.0 03:24:45 28° NE 03:25:34 29° NE 03:35:04 10° E visible
21 Feb 11.7 05:37:49 10° WNW 05:47:03 72° SW 06:04:44 10° SE visible
